Showing default

HAWK-2A, 47505

Orbit data source: Space-Track

HAWK-2A, 47505 is a payload satellite owned by HawkEye 360 (US) in SSO that was launched on Sun, 24 Jan 2021 UTC via an FALCON 9 launch vehicle from the Air Force Eastern Test Range (AFETR). Payload-class satellites include a variety of spacecraft equipped with specific instruments for various scientific and technological missions. These include communications satellites like Starlink; space stations such as the ISS; scientific satellites like the Hubble; Earth observation satellites from companies like Planet Labs, Umbra, and HawkEye 360; GPS; miniature CubeSats for education and research; and military/defense satellites.

Loading next visibility...
Identifier
47505, 2021-006CW
Orbit
SSO
Last TLE update
11 hours ago
Origin
Manufacturer
UTIAS-SFL
Mission
Operational Commercial Sigint
Bus & Motor
DEFIANT, Unknown motor
Mass
31 kg wet, 30 kg dry
Launch date (UTC)
2021-01-24 (4 years ago)
Launch vehicle
FALCON 9
Launch site
Air Force Eastern Test Range (AFETR)
Object type
Payload
Rocket body
Debris
Shape & HBR
Box + 2 Pan, 1 m
Radar Cross Section
0.348 m², Medium (>0.1 m² and < 1m²)

Expand to show TLE details & history

TLE from 11 hours ago
0 HAWK-2A
1 47505U 21006CW  25189.87019105  .00003904  00000-0  14237-3 0  9992
2 47505  97.2825 236.8565 0007162   5.4162 354.7154 15.28726368246947
Epoch: 2025-07-08T20:53Z
TLE epoch observation values (Epoch: 2025-07-08T20:53:04.506Z)
Latitude
-0.00008°
Longitude
-3.47124°
Altitude
477.833 km
Speed
7.629 km/s
True Right ascension
15h 47m 25s
True Declination
0° 00' 00"
Sunlit
Object was in full shadow at epoch
Visualization orbit readout
Latitude
18.68799°
Longitude
-5.48338°
Altitude
477.44 km
Speed
7.631 km/s
Apparent Right ascension
12h 41m 12s
Apparent Declination
-16° 21' 40"
Sunlit
Object is in full shadow
Visualization observer readout
Local Sidereal Time
20:07:21
Azimuth
270.639° WNW
Elevation
-26.801°
Doppler factor
1
Orbital elements
Apogee altitude
481.477 km
Perigee altitude
471.658 km
Semi-major axis
6,854.705 km
Eccentricity
0.00072
Inclination
97.2825°
RAAN
236.8565°
Arg. of periapsis
5.4162°
True anomaly
Unknown
Mean anomaly
354.7154°
Eccentric anomaly
Unknown
Mean motion
3.82437 °/min
Orbital period
94.13 mins
BSTAR
0.00014237
Loading maneuver chart data...
Loading SW <> Apogee altitude chart data...

HAWK-2A Visibility forecast

Observer location: undefined°, undefined°

Span
Click to sort rows by Start time (UTC) header in descending order
Start Az.
Max El. time (UTC)
Max El. Az.
Max El.
End time (UTC)
End Az.
6 mins2025-07-09 16:17:46.087Z358.276° N2025-07-09 16:20:46.087Z265.656° W37.62°2025-07-09 16:23:46.087Z208.891° SW
5 mins2025-07-10 02:52:46.087Z137.074° SSE2025-07-10 02:54:46.087Z70.67° E35.276°2025-07-10 02:57:46.087Z2.668° NNE
|